�������l�o���
Date,Time,MP-1(��Sv/h),MP-2(��Sv/h),MP-3(��Sv/h),MP-4(��Sv/h),MP-5(��Sv/h),MP-6(��Sv/h),MP-7(��Sv/h),MP-8(��Sv/h),����,����(m/s),���J
2023/10/17,00:00,0.512,0.776,0.483,0.967,0.689,0.315,0.562,0.527,���쐼,7.3,��
2023/10/17,00:10,0.510,0.775,0.483,0.965,0.690,0.316,0.561,0.528,���쐼,9.1,��
2023/10/17,00:20,0.511,0.777,0.481,0.963,0.690,0.315,0.560,0.527,���쐼,9.6,��
2023/10/17,00:30,0.509,0.775,0.483,0.964,0.689,0.314,0.563,0.527,��,11.6,��
2023/10/17,00:40,0.511,0.774,0.483,0.964,0.688,0.315,0.560,0.526,��,10.2,��
2023/10/17,00:50,0.511,0.776,0.482,0.966,0.688,0.316,0.560,0.526,��,8.5,��
2023/10/17,01:00,0.513,0.777,0.483,0.966,0.686,0.315,0.560,0.527,���k��,8.6,��
2023/10/17,01:10,0.509,0.775,0.483,0.966,0.689,0.314,0.561,0.525,���k��,9.4,��
2023/10/17,01:20,0.510,0.776,0.483,0.966,0.690,0.315,0.558,0.528,���k��,8.7,��
2023/10/17,01:30,0.513,0.774,0.482,0.966,0.687,0.315,0.560,0.526,��,8.7,��
2023/10/17,01:40,0.511,0.775,0.483,0.967,0.689,0.315,0.559,0.529,��,8.4,��
2023/10/17,01:50,0.511,0.776,0.481,0.966,0.690,0.316,0.560,0.526,��,6.6,��
2023/10/17,02:00,0.512,0.776,0.482,0.966,0.689,0.316,0.559,0.526,���k��,5.2,��
2023/10/17,02:10,0.512,0.776,0.483,0.967,0.691,0.317,0.561,0.527,�k��,4.6,��
2023/10/17,02:20,0.511,0.775,0.482,0.965,0.694,0.317,0.561,0.527,���k��,5.5,��
2023/10/17,02:30,0.511,0.775,0.482,0.964,0.691,0.316,0.563,0.526,���k��,5.1,��
2023/10/17,02:40,0.510,0.778,0.482,0.966,0.690,0.317,0.563,0.527,�k��,4.1,��
2023/10/17,02:50,0.510,0.774,0.482,0.966,0.691,0.317,0.561,0.528,�k��,3.7,��
2023/10/17,03:00,0.511,0.776,0.482,0.966,0.691,0.317,0.562,0.527,�k��,4.8,��
2023/10/17,03:10,0.511,0.776,0.482,0.967,0.690,0.317,0.562,0.527,�k,3.5,��
2023/10/17,03:20,0.513,0.776,0.483,0.966,0.690,0.317,0.562,0.525,�k��,3.1,��
2023/10/17,03:30,0.511,0.777,0.482,0.967,0.691,0.317,0.561,0.527,�k�k��,3.3,��
2023/10/17,03:40,0.510,0.776,0.482,0.967,0.692,0.316,0.561,0.526,�k��,5.0,��
2023/10/17,03:50,0.510,0.775,0.482,0.968,0.691,0.316,0.563,0.527,�k��,7.4,��
2023/10/17,04:00,0.510,0.777,0.481,0.968,0.691,0.317,0.564,0.527,�k��,9.2,��
2023/10/17,04:10,0.512,0.777,0.482,0.967,0.691,0.317,0.563,0.526,�k��,7.7,��
2023/10/17,04:20,0.510,0.775,0.482,0.966,0.691,0.316,0.562,0.526,�k��,7.5,��
2023/10/17,04:30,0.511,0.775,0.482,0.968,0.692,0.316,0.561,0.528,�k��,8.3,��
2023/10/17,04:40,0.512,0.775,0.482,0.968,0.690,0.315,0.563,0.526,�k��,6.6,��
2023/10/17,04:50,0.509,0.775,0.482,0.964,0.691,0.316,0.561,0.527,�k��,8.2,��
2023/10/17,05:00,0.511,0.777,0.482,0.967,0.691,0.316,0.562,0.527,�k�k��,7.1,��
2023/10/17,05:10,0.511,0.775,0.482,0.967,0.690,0.315,0.563,0.527,�k�k��,5.1,��
2023/10/17,05:20,0.513,0.776,0.482,0.967,0.691,0.316,0.561,0.528,�k,5.4,��
2023/10/17,05:30,0.511,0.775,0.482,0.965,0.692,0.316,0.562,0.525,�k,4.9,��
2023/10/17,05:40,0.512,0.775,0.481,0.965,0.690,0.316,0.563,0.526,�k�k��,4.5,��
2023/10/17,05:50,0.511,0.777,0.481,0.966,0.692,0.316,0.561,0.526,�k,2.8,��
2023/10/17,06:00,0.510,0.774,0.482,0.965,0.693,0.316,0.562,0.526,�k,4.3,��
2023/10/17,06:10,0.512,0.774,0.479,0.965,0.690,0.315,0.562,0.526,�k��,5.3,��
2023/10/17,06:20,0.512,0.775,0.482,0.964,0.691,0.316,0.562,0.526,�k��,6.8,��
2023/10/17,06:30,0.511,0.776,0.481,0.969,0.690,0.315,0.564,0.525,�k�k��,5.9,��
2023/10/17,06:40,0.512,0.775,0.482,0.965,0.692,0.316,0.563,0.525,�k,4.6,��
2023/10/17,06:50,0.510,0.777,0.481,0.968,0.690,0.316,0.562,0.525,�k�k��,3.1,��
2023/10/17,07:00,0.512,0.776,0.481,0.968,0.689,0.318,0.562,0.526,�k��,5.5,��
2023/10/17,07:10,0.512,0.776,0.481,0.968,0.692,0.318,0.563,0.526,���k��,11.4,��
2023/10/17,07:20,0.511,0.776,0.482,0.965,0.692,0.316,0.563,0.526,���k��,11.1,��
2023/10/17,07:30,0.511,0.778,0.482,0.970,0.689,0.316,0.561,0.527,�k��,17.2,��
2023/10/17,07:40,0.511,0.778,0.481,0.971,0.691,0.315,0.562,0.525,���k��,10.3,��
2023/10/17,07:50,0.512,0.778,0.482,0.969,0.690,0.315,0.562,0.526,���k��,11.0,��
2023/10/17,08:00,0.511,0.775,0.482,0.969,0.693,0.315,0.562,0.525,���k��,10.5,��
2023/10/17,08:10,0.511,0.775,0.483,0.968,0.693,0.315,0.561,0.527,��,12.4,��
2023/10/17,08:20,0.512,0.774,0.483,0.969,0.691,0.314,0.561,0.528,��,7.7,��
2023/10/17,08:30,0.510,0.774,0.482,0.970,0.691,0.315,0.561,0.526,���k��,5.5,��
2023/10/17,08:40,0.510,0.773,0.484,0.968,0.689,0.314,0.562,0.526,���k��,6.2,��
2023/10/17,08:50,0.512,0.773,0.482,0.969,0.690,0.314,0.562,0.527,�k��,5.1,��
2023/10/17,09:00,0.510,0.775,0.481,0.970,0.690,0.315,0.561,0.527,���k��,4.6,��
2023/10/17,09:10,0.510,0.773,0.480,0.972,0.690,0.316,0.562,0.528,���k��,6.4,��
2023/10/17,09:20,0.510,0.775,0.480,0.969,0.691,0.315,0.561,0.528,���k��,5.7,��
2023/10/17,09:30,0.511,0.776,0.478,0.969,0.690,0.316,0.561,0.529,���k��,8.0,��
2023/10/17,09:40,0.512,0.777,0.478,0.969,0.689,0.314,0.561,0.529,��,6.5,��
2023/10/17,09:50,0.511,0.776,0.478,0.970,0.690,0.316,0.563,0.525,���k��,8.2,��
2023/10/17,10:00,0.512,0.773,0.479,0.970,0.692,0.314,0.562,0.524,���k��,8.4,��
2023/10/17,10:10,0.511,0.761,0.481,0.974,0.692,0.315,0.561,0.525,���k��,6.5,��
2023/10/17,10:20,0.512,0.764,0.478,0.968,0.693,0.315,0.563,0.525,���k��,7.4,��
2023/10/17,10:30,0.511,0.767,0.479,0.972,0.693,0.315,0.563,0.526,���k��,9.9,��
2023/10/17,10:40,0.510,0.766,0.479,0.973,0.693,0.315,0.563,0.525,��,9.0,��
2023/10/17,10:50,0.512,0.764,0.479,0.972,0.692,0.314,0.563,0.526,��,9.2,��
2023/10/17,11:00,0.512,0.766,0.480,0.973,0.692,0.316,0.563,0.526,��,8.7,��
2023/10/17,11:10,0.510,0.769,0.479,0.972,0.691,0.315,0.565,0.526,��,7.4,��
2023/10/17,11:20,0.512,0.762,0.484,0.974,0.695,0.315,0.564,0.527,��,7.6,��
2023/10/17,11:30,0.514,0.779,0.483,0.972,0.694,0.315,0.563,0.525,���k��,8.2,��
2023/10/17,11:40,0.513,0.778,0.484,0.974,0.693,0.316,0.563,0.528,��,9.4,��
2023/10/17,11:50,0.513,0.774,0.483,0.974,0.695,0.315,0.563,0.527,���쐼,9.8,��
2023/10/17,12:00,0.513,0.780,0.484,0.975,0.695,0.316,0.564,0.526,��,9.5,��
2023/10/17,12:10,0.513,0.777,0.483,0.976,0.695,0.313,0.564,0.526,��,10.0,��
2023/10/17,12:20,0.512,0.781,0.484,0.974,0.697,0.315,0.563,0.528,��,10.9,��
2023/10/17,12:30,0.513,0.780,0.485,0.975,0.695,0.316,0.564,0.528,��,7.4,��
2023/10/17,12:40,0.513,0.781,0.482,0.977,0.694,0.316,0.563,0.528,��,9.0,��
2023/10/17,12:50,0.515,0.781,0.482,0.977,0.697,0.314,0.563,0.529,��,7.7,��
2023/10/17,13:00,0.514,0.782,0.481,0.977,0.695,0.316,0.563,0.528,��,6.8,��
2023/10/17,13:10,0.514,0.781,0.482,0.977,0.698,0.315,0.565,0.527,��,7.7,��
2023/10/17,13:20,0.512,0.781,0.483,0.974,0.697,0.315,0.564,0.527,��,7.3,��
2023/10/17,13:30,0.512,0.780,0.483,0.976,0.696,0.315,0.563,0.528,��,5.0,��
2023/10/17,13:40,0.512,0.779,0.482,0.978,0.696,0.316,0.563,0.528,��,4.2,��
2023/10/17,13:50,0.514,0.780,0.483,0.976,0.698,0.316,0.563,0.528,��,4.5,��
2023/10/17,14:00,0.511,0.780,0.482,0.976,0.698,0.316,0.563,0.528,���k��,6.2,��
2023/10/17,14:10,0.515,0.781,0.482,0.976,0.697,0.315,0.564,0.528,���k��,4.7,��
2023/10/17,14:20,0.515,0.780,0.485,0.978,0.697,0.316,0.564,0.528,��,4.6,��
2023/10/17,14:30,0.513,0.780,0.485,0.978,0.698,0.316,0.564,0.529,���k��,3.7,��
2023/10/17,14:40,0.512,0.779,0.485,0.978,0.699,0.315,0.564,0.528,���k��,5.0,��
2023/10/17,14:50,0.513,0.782,0.486,0.978,0.697,0.316,0.565,0.528,��,4.6,��
2023/10/17,15:00,0.516,0.782,0.487,0.976,0.699,0.315,0.563,0.528,��,5.7,��
2023/10/17,15:10,0.514,0.782,0.486,0.977,0.695,0.316,0.563,0.528,��,5.5,��
2023/10/17,15:20,0.514,0.780,0.487,0.973,0.696,0.315,0.564,0.527,��,5.4,��
2023/10/17,15:30,0.514,0.782,0.484,0.976,0.697,0.315,0.564,0.529,���쐼,5.6,��
2023/10/17,15:40,0.513,0.782,0.485,0.975,0.697,0.316,0.565,0.528,���쐼,5.5,��
2023/10/17,15:50,0.515,0.779,0.485,0.975,0.697,0.316,0.562,0.528,��,4.8,��
2023/10/17,16:00,0.514,0.778,0.485,0.976,0.700,0.316,0.563,0.527,��,4.8,��
2023/10/17,16:10,0.514,0.781,0.486,0.975,0.697,0.316,0.565,0.527,��,3.9,��
2023/10/17,16:20,0.513,0.782,0.485,0.976,0.696,0.316,0.565,0.529,��,3.3,��
2023/10/17,16:30,0.514,0.780,0.486,0.976,0.698,0.318,0.565,0.527,���k��,4.4,��
2023/10/17,16:40,0.512,0.781,0.485,0.977,0.698,0.318,0.564,0.530,��,4.2,��
2023/10/17,16:50,0.514,0.784,0.485,0.977,0.698,0.318,0.565,0.530,��,6.0,��
2023/10/17,17:00,0.514,0.785,0.483,0.978,0.700,0.317,0.565,0.529,��,4.6,��
2023/10/17,17:10,0.513,0.785,0.485,0.978,0.702,0.317,0.565,0.530,��,5.1,��
2023/10/17,17:20,0.515,0.785,0.485,0.980,0.701,0.316,0.564,0.529,��,4.6,��
2023/10/17,17:30,0.514,0.782,0.487,0.979,0.700,0.318,0.565,0.528,��,5.1,��
2023/10/17,17:40,0.516,0.785,0.487,0.979,0.701,0.317,0.565,0.530,��,4.9,��
2023/10/17,17:50,0.516,0.782,0.487,0.979,0.701,0.317,0.567,0.527,���쐼,3.2,��
2023/10/17,18:00,0.514,0.783,0.488,0.979,0.699,0.318,0.566,0.528,���쐼,3.7,��
2023/10/17,18:10,0.515,0.783,0.486,0.979,0.700,0.317,0.566,0.529,���쐼,4.1,��
2023/10/17,18:20,0.515,0.785,0.486,0.980,0.700,0.318,0.566,0.529,��,5.7,��
2023/10/17,18:30,0.517,0.784,0.486,0.981,0.699,0.317,0.565,0.528,��,4.4,��
2023/10/17,18:40,0.516,0.783,0.487,0.977,0.701,0.318,0.565,0.528,���k��,3.0,��
2023/10/17,18:50,0.516,0.785,0.486,0.979,0.700,0.316,0.566,0.527,���k��,3.5,��
2023/10/17,19:00,0.515,0.782,0.486,0.978,0.700,0.318,0.567,0.526,��,2.3,��
2023/10/17,19:10,0.514,0.784,0.486,0.978,0.700,0.318,0.564,0.528,���k��,2.6,��
2023/10/17,19:20,0.515,0.783,0.486,0.978,0.700,0.317,0.564,0.528,��,3.7,��
2023/10/17,19:30,0.517,0.783,0.485,0.979,0.699,0.317,0.565,0.528,��,2.5,��
2023/10/17,19:40,0.517,0.784,0.487,0.979,0.701,0.317,0.565,0.526,���k��,2.3,��
2023/10/17,19:50,0.515,0.783,0.485,0.979,0.699,0.317,0.565,0.527,��,2.3,��
2023/10/17,20:00,0.516,0.784,0.486,0.978,0.700,0.316,0.565,0.527,��,1.1,��
2023/10/17,20:10,0.514,0.784,0.487,0.979,0.699,0.318,0.564,0.528,��쐼,0.6,��
2023/10/17,20:20,0.514,0.782,0.486,0.981,0.701,0.318,0.564,0.528,-,CALM,��
2023/10/17,20:30,0.516,0.783,0.486,0.980,0.700,0.316,0.565,0.527,��쐼,0.6,��
2023/10/17,20:40,0.515,0.780,0.486,0.978,0.700,0.317,0.565,0.527,�쐼,1.4,��
2023/10/17,20:50,0.516,0.784,0.486,0.979,0.700,0.315,0.564,0.526,��,1.5,��
2023/10/17,21:00,0.513,0.783,0.487,0.978,0.700,0.317,0.564,0.527,�k��,0.6,��
2023/10/17,21:10,0.516,0.782,0.487,0.980,0.698,0.317,0.564,0.525,�k�k��,0.6,��
2023/10/17,21:20,0.515,0.782,0.487,0.978,0.699,0.317,0.564,0.525,���k��,0.6,��
2023/10/17,21:30,0.515,0.782,0.488,0.980,0.700,0.316,0.564,0.526,��,2.3,��
2023/10/17,21:40,0.516,0.784,0.488,0.978,0.700,0.318,0.563,0.527,��,4.2,��
2023/10/17,21:50,0.515,0.782,0.485,0.978,0.698,0.318,0.563,0.525,���k��,3.7,��
2023/10/17,22:00,0.515,0.783,0.486,0.979,0.698,0.317,0.564,0.526,��,3.3,��
2023/10/17,22:10,0.515,0.782,0.487,0.981,0.702,0.315,0.563,0.526,��,2.6,��
2023/10/17,22:20,0.515,0.784,0.486,0.978,0.701,0.316,0.564,0.525,��,2.3,��
2023/10/17,22:30,0.516,0.783,0.486,0.977,0.700,0.317,0.564,0.526,��,2.6,��
2023/10/17,22:40,0.515,0.785,0.487,0.979,0.699,0.317,0.563,0.527,��,3.4,��
2023/10/17,22:50,0.515,0.783,0.487,0.977,0.700,0.318,0.564,0.526,��,4.1,��
2023/10/17,23:00,0.514,0.784,0.486,0.979,0.700,0.317,0.564,0.527,��,4.5,��
2023/10/17,23:10,0.514,0.782,0.487,0.980,0.700,0.318,0.564,0.526,��,6.0,��
2023/10/17,23:20,0.515,0.784,0.486,0.979,0.700,0.316,0.565,0.527,���k��,5.9,��
2023/10/17,23:30,0.514,0.783,0.485,0.980,0.700,0.317,0.563,0.527,���k��,6.8,��
2023/10/17,23:40,0.515,0.782,0.487,0.980,0.700,0.316,0.565,0.526,���k��,5.6,��
2023/10/17,23:50,0.515,0.782,0.488,0.981,0.700,0.316,0.565,0.526,���k��,4.9,��
